Okean 1-7 - Orbit

View from above orbital plane
View from above orbital plane
View from above satellite
View from above satellite

Ground track
Ground track

The orbit data is extracted from the following two-line orbital elements,

1 23317U 94066A   13144.14436079  .00001341  00000-0  15614-3 0  2260
2 23317 082.5403 072.2973 0019583 307.8260 185.5397 14.84452120  5376
Epoch (UTC): 24 May 2013 03:27:52
Eccentricity: 0.0019583
inclination: 82.5403°
perigee height: 601 km
apogee height: 629 km
right ascension of ascending node: 72.2973°
argument of perigee: 307.8260°
revolutions per day: 14.84452120
mean anomaly at epoch: 185.5397°
orbit number at epoch: 537

The dashed part of the orbit path shows where the satellite is in the earth's shadow,  

Developed and maintained by Chris Peat, Heavens-Above GmbH. Please read the updated FAQ before sending e-mail. Imprint. DLR